| time (UTC) | temp C | wind direction | speed KPH | gust KPH | rain 1hr cm | rain 24hr cm | rain mn cm | humidity % | barometer mb |
| 20260506171515 | 26 | 86 | 1.6 | 6.4 | 0.00 | 0.00 | 0.00 | 83 | 1011.4 |
| 20260506170021 | 26 | 124 | 0.0 | 6.4 | 0.00 | 0.00 | 0.00 | 83 | 1011.6 |
| 20260506164504 | 26 | 135 | 0.0 | 3.2 | 0.00 | 0.00 | 0.00 | 82 | 1011.7 |
| 20260506163012 | 26 | 118 | 0.0 | 1.6 | 0.00 | 0.00 | 0.00 | 83 | 1011.7 |
| 20260506153005 | 25 | 89 | 6.4 | 9.7 | 0.00 | 0.00 | 0.00 | 84 | 1010.7 |
| 20260506143026 | 25 | 161 | 3.2 | 9.7 | 0.00 | 0.00 | 0.00 | 86 | 1010.3 |
| 20260506141506 | 24 | 98 | 1.6 | 6.4 | 0.00 | 0.00 | 0.00 | 87 | 1009.9 |
| 20260506140013 | 24 | 173 | 3.2 | 11.3 | 0.00 | 0.00 | 0.00 | 87 | 1009.8 |
| 20260506134515 | 24 | 128 | 0.0 | 6.4 | 0.00 | 0.00 | 0.00 | 88 | 1009.8 |
| 20260506133018 | 23 | 120 | 3.2 | 9.7 | 0.00 | 0.00 | 0.00 | 88 | 1009.9 |
| 20260506131522 | 23 | 99 | 4.8 | 9.7 | 0.00 | 0.00 | 0.00 | 89 | 1009.9 |
| 20260506130007 | 23 | 113 | 1.6 | 6.4 | 0.00 | 0.00 | 0.00 | 89 | 1009.9 |
| 20260506124512 | 23 | 162 | 1.6 | 4.8 | 0.00 | 0.00 | 0.00 | 90 | 1009.9 |
| 20260506123017 | 23 | 146 | 0.0 | 3.2 | 0.00 | 0.00 | 0.00 | 90 | 1009.9 |
| 20260506121518 | 23 | 153 | 0.0 | 1.6 | 0.00 | 0.00 | 0.00 | 90 | 1009.7 |
| 20260506120023 | 23 | 162 | 0.0 | 8.0 | 0.00 | 0.00 | 0.00 | 89 | 1009.5 |
| 20260506114512 | 23 | 181 | 1.6 | 8.0 | 0.00 | 0.00 | 0.00 | 89 | 1009.4 |
| 20260506113017 | 23 | 216 | 4.8 | 11.3 | 0.00 | 0.00 | 0.00 | 89 | 1009.2 |
| 20260506111517 | 23 | 137 | 4.8 | 11.3 | 0.00 | 0.00 | 0.00 | 89 | 1009.2 |
| 20260506110026 | 23 | 158 | 3.2 | 12.9 | 0.00 | 0.00 | 0.00 | 89 | 1009.1 |
| 20260506104525 | 23 | 231 | 6.4 | 16.1 | 0.00 | 0.00 | 0.00 | 89 | 1008.8 |
| 20260506103014 | 23 | 135 | 4.8 | 20.9 | 0.00 | 0.00 | 0.00 | 89 | 1008.5 |
| 20260506101519 | 23 | 129 | 6.4 | 20.9 | 0.00 | 0.00 | 0.00 | 89 | 1008.3 |
| 20260506100018 | 23 | 93 | 3.2 | 16.1 | 0.00 | 0.00 | 0.00 | 89 | 1008.3 |
| 20260506094506 | 23 | 132 | 6.4 | 16.1 | 0.00 | 0.00 | 0.00 | 89 | 1008.4 |
| 20260506093009 | 23 | 177 | 8.0 | 17.7 | 0.00 | 0.00 | 0.00 | 89 | 1008.3 |
| 20260506091516 | 23 | 270 | 6.4 | 16.1 | 0.00 | 0.00 | 0.00 | 89 | 1008.4 |
| 20260506090023 | 23 | 159 | 4.8 | 14.5 | 0.00 | 0.00 | 0.00 | 89 | 1008.3 |
| 20260506084521 | 23 | 147 | 8.0 | 19.3 | 0.00 | 0.00 | 0.00 | 89 | 1008.4 |
| 20260506083004 | 23 | 210 | 9.7 | 17.7 | 0.00 | 0.00 | 0.00 | 88 | 1008.5 |
| 20260506081512 | 23 | 141 | 8.0 | 20.9 | 0.00 | 0.00 | 0.00 | 88 | 1008.5 |
| 20260506073022 | 23 | 161 | 8.0 | 17.7 | 0.00 | 0.00 | 0.00 | 88 | 1009.0 |
| 20260506071508 | 23 | 216 | 8.0 | 19.3 | 0.00 | 0.00 | 0.00 | 88 | 1009.2 |
| 20260506061531 | 23 | 123 | 3.2 | 12.9 | 0.00 | 0.00 | 0.00 | 87 | 1009.5 |
| 20260506044511 | 24 | 233 | 6.4 | 12.9 | 0.00 | 0.00 | 0.00 | 86 | 1009.5 |
| 20260506043015 | 24 | 130 | 4.8 | 17.7 | 0.00 | 0.00 | 0.00 | 86 | 1009.3 |
| 20260506041519 | 24 | 214 | 4.8 | 17.7 | 0.00 | 0.00 | 0.00 | 86 | 1009.2 |
| 20260506040047 | 24 | 172 | 11.3 | 24.1 | 0.00 | 0.00 | 0.00 | 85 | 1009.0 |
| 20260506034524 | 24 | 219 | 8.0 | 19.3 | 0.00 | 0.00 | 0.00 | 85 | 1009.2 |
| 20260506033011 | 24 | 127 | 8.0 | 17.7 | 0.00 | 0.00 | 0.00 | 85 | 1009.0 |
| 20260506031533 | 25 | 179 | 3.2 | 16.1 | 0.00 | 0.00 | 0.00 | 85 | 1008.9 |
| 20260506030020 | 25 | 190 | 6.4 | 20.9 | 0.00 | 0.00 | 0.00 | 85 | 1008.7 |
| 20260506024526 | 25 | 207 | 4.8 | 20.9 | 0.00 | 0.00 | 0.00 | 84 | 1008.6 |
| 20260506023027 | 25 | 143 | 9.7 | 20.9 | 0.00 | 0.00 | 0.00 | 84 | 1008.3 |
| 20260506021514 | 25 | 191 | 11.3 | 20.9 | 0.00 | 0.00 | 0.00 | 84 | 1008.2 |
| 20260506020018 | 25 | 171 | 11.3 | 17.7 | 0.00 | 0.00 | 0.00 | 84 | 1008.1 |
| 20260506014524 | 25 | 136 | 8.0 | 19.3 | 0.00 | 0.00 | 0.00 | 84 | 1007.8 |
| 20260506013025 | 25 | 146 | 8.0 | 16.1 | 0.00 | 0.00 | 0.00 | 83 | 1007.5 |
| 20260506011527 | 25 | 210 | 6.4 | 16.1 | 0.00 | 0.00 | 0.00 | 83 | 1007.6 |
| 20260506010013 | 25 | 208 | 9.7 | 17.7 | 0.00 | 0.00 | 0.00 | 82 | 1007.4 |
| 20260506004525 | 25 | 152 | 11.3 | 22.5 | 0.00 | 0.00 | 0.00 | 82 | 1007.1 |
| 20260506003003 | 25 | 192 | 6.4 | 12.9 | 0.00 | 0.00 | 0.00 | 81 | 1007.1 |
| 20260506001501 | 26 | 136 | 8.0 | 22.5 | 0.00 | 0.00 | 0.00 | 80 | 1007.1 |
| 20260506000004 | 26 | 108 | 11.3 | 22.5 | 0.00 | 0.00 | 0.00 | 80 | 1006.9 |
| 20260505234504 | 26 | 152 | 11.3 | 24.1 | 0.00 | 0.00 | 0.00 | 80 | 1006.7 |
| 20260505233001 | 26 | 134 | 12.9 | 29.0 | 0.00 | 0.00 | 0.00 | 79 | 1006.8 |
| 20260505231500 | 26 | 125 | 11.3 | 22.5 | 0.00 | 0.00 | 0.00 | 79 | 1006.7 |
| 20260505230004 | 27 | 167 | 9.7 | 32.2 | 0.00 | 0.00 | 0.00 | 78 | 1006.7 |
| 20260505224503 | 27 | 207 | 9.7 | 22.5 | 0.00 | 0.00 | 0.00 | 78 | 1006.7 |
| 20260505223004 | 27 | 57 | 16.1 | 32.2 | 0.00 | 0.00 | 0.00 | 77 | 1006.8 |
| 20260505221507 | 27 | 156 | 14.5 | 29.0 | 0.00 | 0.00 | 0.00 | 76 | 1006.7 |
| 20260505220006 | 27 | 198 | 11.3 | 29.0 | 0.00 | 0.00 | 0.00 | 76 | 1006.8 |
| 20260505214506 | 27 | 51 | 14.5 | 30.6 | 0.00 | 0.00 | 0.00 | 75 | 1006.9 |
| 20260505213006 | 28 | 106 | 12.9 | 25.7 | 0.00 | 0.00 | 0.00 | 76 | 1007.2 |
| 20260505211504 | 28 | 226 | 16.1 | 30.6 | 0.00 | 0.00 | 0.00 | 75 | 1007.5 |
| 20260505210006 | 28 | 164 | 14.5 | 24.1 | 0.00 | 0.00 | 0.00 | 74 | 1007.5 |
| 20260505204505 | 27 | 144 | 17.7 | 29.0 | 0.00 | 0.00 | 0.00 | 77 | 1007.7 |
| 20260505203005 | 27 | 145 | 14.5 | 29.0 | 0.00 | 0.00 | 0.00 | 75 | 1008.0 |
| 20260505201507 | 28 | 128 | 8.0 | 29.0 | 0.00 | 0.00 | 0.00 | 76 | 1008.2 |
| 20260505200013 | 28 | 105 | 16.1 | 29.0 | 0.00 | 0.00 | 0.00 | 75 | 1008.3 |
| 20260505194506 | 28 | 181 | 9.7 | 24.1 | 0.00 | 0.00 | 0.00 | 75 | 1008.6 |
| 20260505193008 | 27 | 184 | 9.7 | 33.8 | 0.00 | 0.00 | 0.00 | 77 | 1008.8 |
| 20260505191507 | 27 | 153 | 16.1 | 27.4 | 0.00 | 0.00 | 0.00 | 78 | 1008.9 |
| 20260505190005 | 27 | 179 | 11.3 | 24.1 | 0.00 | 0.00 | 0.00 | 78 | 1009.0 |
| 20260505184506 | 27 | 208 | 9.7 | 19.3 | 0.00 | 0.00 | 0.00 | 77 | 1009.0 |
| 20260505183007 | 26 | 136 | 9.7 | 19.3 | 0.00 | 0.00 | 0.00 | 79 | 1009.1 |
| 20260505181508 | 26 | 153 | 12.9 | 25.7 | 0.00 | 0.00 | 0.00 | 80 | 1009.2 |
| 20260505180009 | 26 | 240 | 9.7 | 19.3 | 0.00 | 0.00 | 0.00 | 79 | 1009.2 |
| 20260505174505 | 27 | 160 | 9.7 | 20.9 | 0.00 | 0.00 | 0.00 | 79 | 1009.4 |